Location: Indian Forest
(36.2851°N, 86.5961°W)
Time: 14:48:06
(UTC+00:00)

Daily predictions for brighter satellites

Satellite Brightness Start Highest point End
(mag) Time Altitude Azimuth Time Altitude Azimuth Time Altitude Azimuth
ASTRO E2 4.0 12:01:57 10° WSW 12:05:31 32° SSW 12:09:05 10° SE
Meteor 2-6 Rocket 4.2 12:00:30 10° N 12:05:55 86° W 12:11:22 10° S
Cosmos 158 Rocket 4.1 12:01:32 10° NNW 12:06:15 50° WSW 12:11:04 10° S
Cosmos 1862 3.4 12:03:52 10° SSW 12:07:50 56° W 12:11:50 10° N
Cosmos 2112 Rocket 4.1 12:02:54 10° NNW 12:08:17 79° WSW 12:13:36 10° SSE
Cosmos 2154 Rocket 4.0 12:03:16 10° SSW 12:09:26 75° W 12:15:42 10° N
PAYLOAD B 4.2 12:04:11 10° N 12:09:41 72° WNW 12:15:08 10° SSW
BREEZE-M DEB (TANK) 4.3 12:05:42 10° WSW 12:10:21 67° NNW 12:20:09 10° ENE
Cosmos 1844 Rocket 2.8 12:05:16 10° SW 12:10:47 58° WNW 12:16:24 10° NNE
Cosmos 1844 3.6 12:06:57 10° SSW 12:12:28 70° WNW 12:18:02 10° NNE
NOAA 6 4.2 22:56:25 10° SSE 23:01:35 86° WSW 23:06:46 10° NNW
CSL-04 DEB 4.5 22:57:44 10° NNE 23:01:51 71° ESE 23:06:03 10° S
X-37B 2.9 23:00:24 10° SSE 23:01:56 13° SE 23:03:28 10° ESE
Cosmos 1633 Rocket 4.5 22:59:12 10° NNE 23:02:03 17° ENE 23:04:54 10° ESE
Cosmos 1867 3.7 22:57:17 10° SSW 23:02:37 65° ESE 23:08:01 10° NE
ADEOS Rocket 4.2 22:57:30 10° N 23:05:05 60° WNW 23:12:37 10° SSW
Cosmos 2221 4.3 23:01:10 10° SW 23:05:08 35° WNW 23:09:07 10° NNW
Cosmos 1606 2.9 23:02:38 10° S 23:06:25 52° E 23:10:13 10° NNE
Cosmos 2154 Rocket 4.1 23:02:46 10° N 23:09:09 83° E 23:15:30 10° S
Cosmos 1933 4.2 23:05:39 10° SSE 23:09:10 30° E 23:12:42 10° NNE
Cosmos 2298 Rocket 4.1 23:03:54 10° NNW 23:09:14 88° WSW 23:14:33 10° SSE
Cosmos 2150 Rocket 4.0 23:04:54 10° NNW 23:10:04 86° ENE 23:15:13 10° SSE
SMAP 3.0 23:07:33 10° SSE 23:12:10 71° ENE 23:16:49 10° N
Cosmos 1818 3.6 23:08:45 10° NNW 23:14:12 67° ENE 23:19:36 10° SE
CRYOSAT 2 4.4 23:09:51 10° N 23:14:46 83° E 23:19:39 10° S
Cosmos 1943 Rocket 3.7 23:14:17 10° NNE 23:17:07 14° NE 23:19:12 12° ENE
Cosmos 2341 Rocket 4.2 23:13:52 10° N 23:20:00 52° E 23:26:08 10° SSE
USA 215 3.4 23:13:55 10° NE 23:20:29 83° NW 23:27:01 10° SW
Cosmos 1125 Rocket 3.4 23:15:56 10° NNW 23:21:09 75° ENE 23:26:21 10° SSE
H-2A R/B 3.6 23:17:58 10° S 23:22:13 50° W 23:26:21 10° NNW
Cosmos 1782 4.2 23:20:22 10° SE 23:23:12 19° E 23:25:18 13° NE
SL-16 R/B 2.3 23:19:02 10° S 23:24:34 59° ESE 23:30:08 10° NNE
Meteor 1-4 Rocket 4.0 23:22:23 10° SE 23:25:02 19° E 23:26:26 16° ENE
YAOGAN 1 4.5 23:30:23 12° NE 23:30:23 12° NE 23:31:03 10° NNE
ERS-2 2.0 23:29:01 10° NNE 23:32:41 78° ESE 23:36:20 10° S
Cosmos 1689 Rocket 3.1 23:32:45 21° ENE 23:33:45 26° E 23:36:17 10° SSE
BREEZE-M DEB (TANK) 4.0 23:32:51 10° W 23:34:51 17° NW 23:36:12 11° N
Helios 1A Rocket 4.5 23:36:28 17° NE 23:36:28 17° NE 23:38:08 10° NNE
SL-24 R/B 4.2 23:32:52 10° NNE 23:36:34 39° E 23:40:00 10° SSE
Meteor 2-12 Rocket 4.4 23:32:32 10° N 23:38:43 84° E 23:44:49 10° S
SL-8 Rocket 4.0 23:33:29 10° N 23:39:37 56° E 23:45:45 10° SSE
IRS-1C Rocket 4.4 23:35:52 10° SE 23:40:49 43° ENE 23:45:47 10° N
Cosmos 1515 Rocket 4.4 23:38:02 10° SSE 23:41:46 28° E 23:43:50 20° NE
Lacrosse 5 rocket 1.2 23:39:26 10° SW 23:43:07 68° NW 23:45:31 20° NNE
CZ-2D R/B 3.9 23:39:49 10° SE 23:43:13 32° ENE 23:46:39 10° N
Cosmos 2181 Rocket 4.0 23:37:25 10° S 23:43:50 76° E 23:50:13 10° N
COSMO-SKYMED 1 2.5 23:41:10 10° NNE 23:45:30 69° ESE 23:49:49 10° S
Okean-O 3.4 23:44:06 10° SE 23:47:52 28° ENE 23:51:40 10° NNE
Sich 1 3.5 23:45:34 10° NNW 23:49:55 65° W 23:54:11 10° S
USA 267 4.1 23:47:07 20° ENE 23:50:15 30° NNE 23:55:45 10° NNW
